Flag for U.S.A. Weather past 2 weeks in Billings, Montana, U.S.A.

Now
75 °F

Passing clouds.


Feels Like: 77 °F
Forecast: 63 / 96 °F
Wind: 7 mph from South

Location: Billings Logan International Airport

Current Time: Aug 29, 2015 at 1:54:42 AM

Latest Report: Aug 29, 2015 at 12:53 AM


Visibility: 10 mi

Pressure: 29.88 "Hg (26.80 "Hg at 946m altitude)

Humidity: 27%

Dew point: 39 °F

Location of BillingsLocation

Historic Weather in Billings — Graph

°F

Billings temperature yesterday

Maximum temperature yesterday: 88 °F (at 3:53 PM)
Minimum temperature yesterday: 64 °F (at 7:53 AM)
Average temperature yesterday: 76 °F

Past Weeks' High & Low Weather Summary

 TemperatureHumidityPressure
High99 °F (Aug 14, 2:53 PM)97% (Aug 18, 4:00 AM)30.24 "Hg (Aug 18, 4:00 AM)
Low40 °F (Aug 23, 6:53 AM)12% (Aug 15, 5:53 PM)29.46 "Hg (Aug 21, 5:53 PM)
Average69 °F43%29.96 "Hg
* Reported Aug 14 12:53 AM — Aug 29 12:53 AM, Billings, Weather by CustomWeather, © 2015

Note: Actual official high and low records may vary slightly from our data, if they occured in-between our weather recording intervals... More about our weather records

Advertising

Billings weather history for previous 24 hours

 ConditionsComfort  
Time TempWeatherWind HumidityBarometerVisibility
12:53 AM
Sat, Aug 29
75 °FPassing clouds.7 mph27%29.88 "Hg10 mi
11:53 PM
Fri, Aug 28
73 °FPassing clouds.6 mph30%29.89 "Hg10 mi
10:53 PM77 °FPassing clouds.5 mph26%29.91 "Hg8 mi
9:53 PM78 °FPassing clouds.6 mph25%29.92 "Hg6 mi
8:53 PM81 °FBroken clouds.5 mph21%29.92 "Hg6 mi
7:53 PM83 °FBroken clouds.5 mph21%29.90 "Hg5 mi
6:53 PM86 °FBroken clouds.5 mph19%29.89 "Hg5 mi
5:53 PM88 °FBroken clouds.No wind16%29.90 "Hg7 mi
4:53 PM88 °FBroken clouds.7 mph17%29.91 "Hg6 mi
3:53 PM88 °FBroken clouds.7 mph19%29.92 "Hg5 mi
2:53 PM86 °FBroken clouds.8 mph22%29.95 "Hg5 mi
1:53 PM84 °FPartly sunny.10 mph25%29.97 "Hg6 mi
12:53 PM83 °FPartly sunny.14 mph26%29.98 "Hg7 mi
11:53 AM77 °FPartly sunny.13 mph40%30.01 "Hg7 mi
10:53 AM73 °FOvercast.16 mph43%30.02 "Hg7 mi
9:53 AM70 °FBroken clouds.18 mph46%30.03 "Hg7 mi
8:53 AM65 °FPartly sunny.14 mph54%30.04 "Hg7 mi
7:53 AM64 °FBroken clouds.16 mph54%30.03 "Hg7 mi
6:53 AM66 °FPartly cloudy.20 mph50%30.00 "Hg8 mi
5:53 AM66 °FPassing clouds.18 mph50%29.98 "Hg9 mi
4:53 AM66 °FPassing clouds.18 mph50%29.96 "Hg8 mi
3:53 AM67 °FClear.17 mph49%29.95 "Hg7 mi
2:53 AM68 °FPassing clouds.20 mph45%29.95 "Hg7 mi
1:53 AM70 °FPassing clouds.18 mph39%29.95 "Hg6 mi
Weather by CustomWeather, © 2015

See weather overviewHow to use our weather pages